Yankton, SD

12:09 PM CST on February 19, 2018 (GMT -0600)
Gurney Municipal

Weather History for KYKN - March, 2014

Change the Weather History Date:

Monday, March 17, 2014

  Actual Average Record
Temperature  
Mean Temperature 44 °F -  
Max Temperature 59 °F 46 °F 82 °F (2012)
Min Temperature 30 °F 24 °F 3 °F (1962)
Degree Days  
Heating Degree Days 20    
Moisture  
Dew Point 22 °F    
Average Humidity 41    
Maximum Humidity 56    
Minimum Humidity 29    
Precipitation  
Precipitation 0.00 in - - ()
Sea Level Pressure  
Sea Level Pressure 29.53 in    
Wind  
Wind Speed 13 mph (South)    
Max Wind Speed 18 mph    
Max Gust Speed 25 mph    
Visibility 10 miles    
Events      
Averages and records for this station are not official NWS values.
T = Trace of Precipitation, MM = Missing Value Source: NWS Daily Summary

Daily Weather History Graph

Daily Weather History Graph

Search for Another Location

Airport or City:

Trip Planner

Search our weather history database for the weather conditions in past years. The results will help you decide how hot, cold, wet, or windy it might be!

Date:

Astronomy

Mar. 17, 2014 Rise Set
Actual Time 7:38 AM CDT 7:38 PM CDT
Civil Twilight 7:09 AM CDT 8:06 PM CDT
Nautical Twilight 6:36 AM CDT 8:39 PM CDT
Astronomical Twilight 6:03 AM CDT 9:13 PM CDT
Moon 8:59 PM CDT (3/17) 7:52 AM CDT (3/17)
Length of Visible Light 12h 56m
Length of Day
12h 00m
Full, 99% of the Moon is Illuminated
Mar 17
Full
Mar 23
Last Quarter
Mar 30
New
Apr 7
First Quarter
Apr 15
Full

Hourly Weather History & Observations

Time (CDT) Temp. Windchill Dew Point Humidity Pressure Visibility Wind Dir Wind Speed Gust Speed Precip Events Conditions
12:15 AM 30.2 °F 19.8 °F 14.0 °F 51% 29.93 in 10.0 mi SSE 13.8 mph - N/A   Clear
12:35 AM 30.2 °F 20.8 °F 14.0 °F 51% 29.93 in 10.0 mi SSE 11.5 mph - N/A   Clear
12:55 AM 30.2 °F 20.8 °F 15.8 °F 55% 29.91 in 10.0 mi SSE 11.5 mph - N/A   Clear
1:15 AM 30.2 °F 20.2 °F 15.8 °F 55% 29.88 in 10.0 mi South 12.7 mph - N/A   Scattered Clouds
1:35 AM 32.0 °F 22.5 °F 14.0 °F 48% 29.85 in 10.0 mi South 12.7 mph - N/A   Partly Cloudy
1:55 AM 33.8 °F 24.3 °F 14.0 °F 44% 29.85 in 10.0 mi South 13.8 mph 21.9 mph N/A   Clear
2:15 AM 33.8 °F 23.9 °F 14.0 °F 44% 29.83 in 10.0 mi South 15.0 mph 20.7 mph N/A   Scattered Clouds
2:35 AM 33.8 °F 23.5 °F 15.8 °F 48% 29.82 in 10.0 mi South 16.1 mph - N/A   Clear
2:55 AM 33.8 °F 23.9 °F 14.0 °F 44% 29.80 in 10.0 mi South 15.0 mph - N/A   Clear
3:15 AM 33.8 °F 24.8 °F 15.8 °F 48% 29.79 in 10.0 mi South 12.7 mph - N/A   Clear
3:35 AM 33.8 °F 24.3 °F 15.8 °F 48% 29.77 in 10.0 mi South 13.8 mph - N/A   Clear
3:55 AM 35.6 °F 25.9 °F 15.8 °F 44% 29.75 in 10.0 mi South 16.1 mph 24.2 mph N/A   Scattered Clouds
4:15 AM 35.6 °F 26.2 °F 15.8 °F 44% 29.73 in 10.0 mi South 15.0 mph - N/A   Mostly Cloudy
4:35 AM 35.6 °F 25.9 °F 15.8 °F 44% 29.72 in 10.0 mi South 16.1 mph - N/A   Partly Cloudy
4:55 AM 35.6 °F 27.5 °F 15.8 °F 44% 29.70 in 10.0 mi South 11.5 mph - N/A   Partly Cloudy
5:15 AM 35.6 °F 27.1 °F 15.8 °F 44% 29.70 in 10.0 mi South 12.7 mph - N/A   Partly Cloudy
5:35 AM 35.6 °F 28.0 °F 17.6 °F 48% 29.69 in 10.0 mi South 10.4 mph - N/A   Mostly Cloudy
5:55 AM 35.6 °F 25.5 °F 17.6 °F 48% 29.68 in 10.0 mi South 17.3 mph - N/A   Mostly Cloudy
6:15 AM 33.8 °F 26.4 °F 17.6 °F 52% 29.67 in 10.0 mi South 9.2 mph - N/A   Clear
6:35 AM 33.8 °F 26.4 °F 17.6 °F 52% 29.65 in 10.0 mi South 9.2 mph - N/A   Clear
6:55 AM 33.8 °F 25.3 °F 17.6 °F 52% 29.63 in 10.0 mi South 11.5 mph - N/A   Clear
7:15 AM 33.8 °F 24.8 °F 17.6 °F 52% 29.62 in 10.0 mi South 12.7 mph - N/A   Clear
7:35 AM 33.8 °F 27.7 °F 17.6 °F 52% 29.62 in 10.0 mi South 6.9 mph - N/A   Clear
7:55 AM 33.8 °F 26.4 °F 17.6 °F 52% 29.62 in 10.0 mi South 9.2 mph - N/A   Clear
8:15 AM 33.8 °F 25.8 °F 19.4 °F 56% 29.61 in 10.0 mi South 10.4 mph - N/A   Clear
8:35 AM 33.8 °F 25.8 °F 19.4 °F 56% 29.60 in 10.0 mi South 10.4 mph - N/A   Clear
8:55 AM 35.6 °F 27.5 °F 19.4 °F 52% 29.59 in 10.0 mi South 11.5 mph - N/A   Clear
9:15 AM 37.4 °F 28.9 °F 19.4 °F 48% 29.57 in 10.0 mi South 13.8 mph - N/A   Clear
9:35 AM 37.4 °F 29.8 °F 21.2 °F 52% 29.57 in 10.0 mi South 11.5 mph - N/A   Clear
9:55 AM 39.2 °F 30.8 °F 21.2 °F 49% 29.56 in 10.0 mi SSW 15.0 mph - N/A   Clear
10:15 AM 39.2 °F 32.0 °F 21.2 °F 49% 29.55 in 10.0 mi South 11.5 mph - N/A   Clear
10:35 AM 39.2 °F 31.2 °F 21.2 °F 49% 29.55 in 10.0 mi South 13.8 mph - N/A   Clear
10:55 AM 42.8 °F 36.2 °F 21.2 °F 42% 29.55 in 10.0 mi South 12.7 mph - N/A   Clear
11:15 AM 42.8 °F 37.0 °F 21.2 °F 42% 29.54 in 10.0 mi South 10.4 mph - N/A   Clear
11:35 AM 42.8 °F 36.2 °F 23.0 °F 46% 29.53 in 10.0 mi South 12.7 mph - N/A   Clear
11:55 AM 44.6 °F 38.4 °F 23.0 °F 43% 29.52 in 10.0 mi South 12.7 mph - N/A   Clear
12:15 PM 44.6 °F 38.4 °F 23.0 °F 43% 29.51 in 10.0 mi South 12.7 mph - N/A   Clear
12:35 PM 46.4 °F 40.7 °F 24.8 °F 43% 29.49 in 10.0 mi SSE 12.7 mph - N/A   Clear
12:55 PM 48.2 °F - 24.8 °F 40% 29.47 in 10.0 mi SSE 12.7 mph 17.3 mph N/A   Clear
1:15 PM 51.8 °F - 24.8 °F 35% 29.46 in 10.0 mi South 12.7 mph - N/A   Clear
1:35 PM 53.6 °F - 26.6 °F 35% 29.44 in 10.0 mi SSE 13.8 mph - N/A   Clear
1:55 PM 55.4 °F - 26.6 °F 33% 29.43 in 10.0 mi South 15.0 mph - N/A   Clear
2:15 PM 57.2 °F - 26.6 °F 31% 29.42 in 10.0 mi SSE 11.5 mph - N/A   Clear
2:35 PM 57.2 °F - 26.6 °F 31% 29.41 in 10.0 mi SSE 15.0 mph - N/A   Clear
2:55 PM 57.2 °F - 26.6 °F 31% 29.40 in 10.0 mi SSE 12.7 mph - N/A   Clear
3:15 PM 57.2 °F - 26.6 °F 31% 29.39 in 10.0 mi South 13.8 mph - N/A   Clear
3:35 PM 59.0 °F - 26.6 °F 29% 29.38 in 10.0 mi South 16.1 mph - N/A   Clear
3:55 PM 59.0 °F - 26.6 °F 29% 29.38 in 10.0 mi South 13.8 mph - N/A   Clear
4:15 PM 59.0 °F - 26.6 °F 29% 29.37 in 10.0 mi SSE 16.1 mph - N/A   Clear
4:35 PM 57.2 °F - 26.6 °F 31% 29.36 in 10.0 mi SSE 13.8 mph - N/A   Clear
4:55 PM 59.0 °F - 26.6 °F 29% 29.35 in 10.0 mi SSE 18.4 mph - N/A   Clear
5:15 PM 57.2 °F - 26.6 °F 31% 29.34 in 10.0 mi South 17.3 mph - N/A   Clear
5:35 PM 57.2 °F - 26.6 °F 31% 29.33 in 10.0 mi SSE 18.4 mph - N/A   Clear
5:55 PM 57.2 °F - 26.6 °F 31% 29.33 in 10.0 mi SE 16.1 mph - N/A   Clear
6:15 PM 57.2 °F - 26.6 °F 31% 29.32 in 10.0 mi SSE 13.8 mph - N/A   Clear
6:35 PM 57.2 °F - 26.6 °F 31% 29.32 in 10.0 mi SE 13.8 mph - N/A   Clear
6:55 PM 57.2 °F - 26.6 °F 31% 29.31 in 10.0 mi SSE 13.8 mph - N/A   Clear
7:15 PM 55.4 °F - 26.6 °F 33% 29.32 in 10.0 mi SE 11.5 mph 19.6 mph N/A   Clear
7:35 PM 55.4 °F - 26.6 °F 33% 29.30 in 10.0 mi SE 12.7 mph - N/A   Clear
7:55 PM 55.4 °F - 26.6 °F 33% 29.31 in 10.0 mi SE 9.2 mph - N/A   Clear
8:15 PM 55.4 °F - 26.6 °F 33% 29.31 in 10.0 mi SE 10.4 mph - N/A   Clear
8:35 PM 53.6 °F - 26.6 °F 35% 29.31 in 10.0 mi SSE 12.7 mph 17.3 mph N/A   Clear
8:55 PM 53.6 °F - 26.6 °F 35% 29.31 in 10.0 mi SSE 17.3 mph - N/A   Clear
9:15 PM 53.6 °F - 26.6 °F 35% 29.31 in 10.0 mi South 18.4 mph 23.0 mph N/A   Clear
9:35 PM 53.6 °F - 26.6 °F 35% 29.32 in 10.0 mi South 15.0 mph 19.6 mph N/A   Partly Cloudy
9:55 PM 53.6 °F - 26.6 °F 35% 29.32 in 10.0 mi South 15.0 mph 21.9 mph N/A   Scattered Clouds
10:15 PM 53.6 °F - 26.6 °F 35% 29.32 in 10.0 mi South 18.4 mph 25.3 mph N/A   Mostly Cloudy
10:35 PM 51.8 °F - 26.6 °F 38% 29.33 in 10.0 mi SSE 12.7 mph - N/A   Partly Cloudy
10:55 PM 51.8 °F - 26.6 °F 38% 29.33 in 10.0 mi South 13.8 mph 17.3 mph N/A   Clear
11:15 PM 53.6 °F - 28.4 °F 38% 29.33 in 10.0 mi South 16.1 mph - N/A   Clear
11:35 PM 53.6 °F - 28.4 °F 38% 29.33 in 10.0 mi South 15.0 mph - N/A   Clear
11:55 PM 53.6 °F - 26.6 °F 35% 29.33 in 10.0 mi South 15.0 mph 20.7 mph N/A   Clear